[[{"header":{"parameterUnit":"m.s-1","parameterCategory":1,"la1":30.2991,"la2":30.254,"lo1":-89.0895,"lo2":-89.0444,"dy":0.0017,"dx":0.0017,"nx":28,"ny":28,"refTime":"2025-02-04T03:00:00:Z","depth":0,"parameterNumber":2,"parameterNumberName":"U-component_of_WINDS"},"data":[0,0,0,0,0,0,0,0,0,0,0,0,0,0,0,0,0,0,0,0,0,0,0,0,0,0,0,0,0,0,0,0,0,0,0,0,0,0,0,0,0,0,0,0,0,0,0,0,0,0,0,0,0,0,0,0,0,0,-0.3493,-0.3492,0,-0.3446,-0.3446,-0.3445,-0.342,-0.342,-0.342,-0.342,-0.3372,-0.3371,-0.337,0,0,0,0,0,0,0,0,0,0,0,0,0,-0.356,-0.3559,-0.3493,-0.3492,-0.3491,-0.3446,-0.3445,-0.3445,-0.342,-0.342,-0.342,-0.342,-0.3373,-0.3371,-0.337,0,0,0,0,0,0,0,0,0,0,0,0,0,-0.3524,-0.3559,-0.3493,-0.3473,-0.3471,-0.3446,-0.3445,-0.3445,-0.342,-0.342,-0.342,-0.3419,-0.3373,-0.3371,-0.337,-0.336,0,0,-0.3364,-0.3363,0,0,0,0,0,0,0,0,-0.3526,-0.3522,-0.3477,-0.3475,-0.3472,-0.3439,-0.3452,-0.3416,-0.342,-0.3439,-0.342,-0.3419,-0.3394,-0.3391,-0.3382,-0.3358,-0.3356,-0.3364,-0.3363,-0.3362,-0.3362,0,0,0,0,0,0,0,-0.3529,-0.3524,-0.3474,-0.3476,-0.3473,-0.3467,-0.3462,-0.3445,-0.3418,-0.3438,-0.3436,-0.343,-0.3393,-0.3384,-0.3381,-0.3355,-0.3364,-0.3362,-0.3361,-0.3361,-0.3322,-0.3322,0,0,0,0,0,0,-0.3534,-0.3526,-0.3476,-0.3473,-0.35,-0.3466,-0.346,-0.3449,-0.3418,-0.3413,-0.3431,-0.3429,-0.3387,-0.3383,-0.3379,-0.3367,-0.3362,-0.336,-0.3359,-0.3322,-0.3322,-0.3322,0,0,0,0,0,0,-0.3536,-0.353,-0.3478,-0.3499,-0.3492,-0.3465,-0.3453,-0.3449,-0.344,-0.3413,-0.3408,-0.3426,-0.3387,-0.3382,-0.3365,-0.3365,-0.336,-0.3358,-0.3322,-0.3322,-0.3322,-0.3341,0,0,0,0,0,0,-0.3538,-0.3531,-0.3527,-0.3499,-0.3491,-0.3464,-0.3453,-0.3448,-0.3436,-0.3435,-0.3408,-0.3403,-0.3387,-0.3368,-0.3364,-0.3362,-0.3357,-0.3321,-0.3322,-0.3322,-0.3341,-0.3342,-0.3343,0,0,0,0,0,-0.354,-0.3534,-0.3527,-0.3521,-0.3485,-0.3464,-0.346,-0.3441,-0.3437,-0.3433,-0.3415,-0.3404,-0.3365,-0.3367,-0.3361,-0.3359,-0.3321,-0.3322,-0.3322,-0.334,-0.3342,-0.3343,0,0,0,0,0,0,-0.3563,-0.353,-0.3522,-0.3506,-0.3488,-0.346,-0.3454,-0.3443,-0.3426,-0.3425,-0.3402,-0.3397,-0.3382,-0.3369,-0.3371,-0.3349,-0.3342,-0.3341,-0.3358,-0.3359,-0.3361,-0.3364,-0.3355,0,0,0,0,0,-0.3566,-0.3552,-0.3524,-0.3513,-0.3504,-0.3481,-0.3471,-0.3458,-0.3439,-0.3431,-0.3413,-0.3394,-0.3378,-0.3368,-0.3352,-0.3338,-0.3332,-0.3334,-0.3336,-0.3337,-0.3336,-0.3329,-0.3329,-0.3322,-0.3322,-0.3322,0,0,-0.3573,-0.3553,-0.3545,-0.3517,-0.3502,-0.3488,-0.3475,-0.346,-0.345,-0.3429,-0.3412,-0.3398,-0.3376,-0.3361,-0.3354,-0.335,-0.3337,-0.3337,-0.3338,-0.3337,-0.3329,-0.333,-0.333,-0.3322,-0.3322,-0.3322,0,0,-0.3577,-0.3561,-0.355,-0.3535,-0.3511,-0.3496,-0.3493,-0.3467,-0.3457,-0.344,-0.3424,-0.3411,-0.3383,-0.3368,-0.3357,-0.3356,-0.3345,-0.3352,-0.3359,-0.3352,-0.3352,-0.3353,-0.3353,-0.3353,-0.3351,-0.3351,-0.3351,0,-0.3588,-0.3566,-0.3546,-0.3532,-0.3521,-0.3501,-0.349,-0.3476,-0.3449,-0.3441,-0.3437,-0.3403,-0.3386,-0.3368,-0.3368,-0.3359,-0.3356,-0.3355,-0.3354,-0.3354,-0.3354,-0.3354,-0.3354,-0.3352,-0.3352,-0.3352,-0.3352,0,-0.3581,-0.3566,-0.356,-0.3534,-0.3522,-0.3509,-0.3488,-0.3477,-0.3466,-0.3451,-0.3434,-0.3413,-0.3393,-0.3387,-0.3376,-0.3367,-0.3366,-0.3358,-0.3351,-0.3356,-0.3355,-0.3355,-0.3354,-0.3353,-0.3353,-0.3353,0,0,-0.3599,-0.3562,-0.356,-0.3548,-0.3521,-0.3509,-0.3496,-0.3476,-0.3467,-0.3449,-0.3438,-0.3415,-0.3408,-0.3395,-0.3382,-0.3376,-0.3377,-0.3368,-0.3368,-0.3371,-0.3366,-0.3373,-0.3373,-0.3369,-0.3369,-0.3369,-0.3368,0,-0.36,-0.3575,-0.3557,-0.354,-0.3526,-0.3507,-0.3496,-0.3478,-0.3464,-0.345,-0.3434,-0.3418,-0.341,-0.3402,-0.3395,-0.3378,-0.3375,-0.3378,-0.3359,-0.3358,-0.3365,-0.3373,-0.3379,-0.338,-0.3368,-0.3368,-0.3368,0,-0.3598,-0.358,-0.3562,-0.3536,-0.3529,-0.352,-0.35,-0.3487,-0.3466,-0.3456,-0.3442,-0.3428,-0.3414,-0.3408,-0.3389,-0.3391,-0.3382,-0.3372,-0.3372,-0.3369,-0.3364,-0.3371,-0.3379,-0.338,-0.3367,-0.3367,-0.3367,0,-0.3613,-0.3585,-0.357,-0.356,-0.353,-0.3524,-0.3511,-0.349,-0.3479,-0.3462,-0.3454,-0.3436,-0.3425,-0.3411,-0.3393,-0.339,-0.3375,-0.3368,-0.3367,-0.3367,-0.3365,-0.3365,-0.3372,-0.3358,-0.3358,-0.3358,-0.3358,0,-0.3616,-0.3606,-0.3576,-0.3567,-0.3555,-0.3534,-0.3522,-0.3508,-0.349,-0.3478,-0.3461,-0.345,-0.3426,-0.3412,-0.3397,-0.3384,-0.3379,-0.3371,-0.3367,-0.3372,-0.3374,-0.3366,-0.3366,-0.3358,-0.3358,-0.3358,-0.3358,0,-0.3631,-0.3611,-0.3594,-0.3567,-0.356,-0.3552,-0.3529,-0.3519,-0.3504,-0.3489,-0.3484,-0.346,-0.3443,-0.3423,-0.34,-0.339,-0.3378,-0.3372,-0.3385,-0.3382,-0.3383,-0.3383,-0.3386,-0.3385,-0.3372,-0.3372,-0.3372,0,-0.3635,-0.3626,-0.3598,-0.3589,-0.3576,-0.3562,-0.355,-0.3529,-0.3518,-0.3494,-0.3488,-0.347,-0.3454,-0.3428,-0.3408,-0.3391,-0.3384,-0.3387,-0.3382,-0.3388,-0.3385,-0.3386,-0.3385,-0.3388,-0.3388,-0.3389,-0.3389,0,-0.3644,-0.3634,-0.3618,-0.3599,-0.3586,-0.357,-0.3553,-0.3546,-0.3522,-0.351,-0.3493,-0.3481,-0.3457,-0.3439,-0.3419,-0.3405,-0.3393,-0.339,-0.3389,-0.3395,-0.3403,-0.3399,-0.3389,-0.3391,-0.339,-0.339,-0.339,-0.339,-0.3653,-0.3645,-0.3624,-0.3607,-0.3592,-0.3576,-0.3566,-0.355,-0.3535,-0.3513,-0.3502,-0.3485,-0.3465,-0.3436,-0.3423,-0.341,-0.3406,-0.3404,-0.3404,-0.3404,-0.3405,-0.3405,-0.3406,-0.3406,-0.3406,-0.3406,-0.3406,0,-0.3661,-0.3647,-0.3631,-0.3608,-0.3595,-0.3584,-0.3565,-0.3555,-0.354,-0.3522,-0.3507,-0.3487,-0.347,-0.3449,-0.343,-0.3423,-0.3417,-0.3419,-0.342,-0.3417,-0.341,-0.3413,-0.3425,-0.3425,-0.3425,-0.3425,-0.3425,-0.3425,-0.3664,-0.3649,-0.3637,-0.3615,-0.36,-0.3583,-0.3573,-0.3559,-0.3545,-0.3523,-0.3509,-0.3495,-0.3476,-0.3456,-0.344,-0.3434,-0.3429,-0.3432,-0.3425,-0.3419,-0.3417,-0.3416,-0.3419,-0.3431,-0.3431,-0.3433,-0.3433,-0.3433]},{"header":{"parameterUnit":"m.s-1","parameterCategory":1,"la1":30.2991,"la2":30.254,"lo1":-89.0895,"lo2":-89.0444,"dy":0.0017,"dx":0.0017,"nx":28,"ny":28,"refTime":"2025-02-04T03:00:00:Z","depth":0,"parameterNumber":3,"parameterNumberName":"V-component_of_WINDS"},"data":[0,0,0,0,0,0,0,0,0,0,0,0,0,0,0,0,0,0,0,0,0,0,0,0,0,0,0,0,0,0,0,0,0,0,0,0,0,0,0,0,0,0,0,0,0,0,0,0,0,0,0,0,0,0,0,0,0,0,1.0795,1.0795,0,1.0726,1.0725,1.0724,1.0681,1.0681,1.0681,1.0681,1.0607,1.0605,1.0603,0,0,0,0,0,0,0,0,0,0,0,0,0,1.0889,1.0888,1.0795,1.0795,1.0794,1.0726,1.0725,1.0724,1.0681,1.0681,1.0681,1.0681,1.0607,1.0605,1.0603,0,0,0,0,0,0,0,0,0,0,0,0,0,1.0837,1.0887,1.0796,1.0764,1.0761,1.0726,1.0725,1.0724,1.0681,1.0681,1.0681,1.0681,1.0608,1.0605,1.0603,1.0593,0,0,1.0595,1.0593,0,0,0,0,0,0,0,0,1.084,1.0834,1.077,1.0766,1.0763,1.0712,1.0731,1.068,1.0682,1.0712,1.0681,1.068,1.0642,1.0636,1.0624,1.0589,1.0586,1.0594,1.0593,1.0592,1.0591,0,0,0,0,0,0,0,1.0844,1.0836,1.0768,1.0769,1.0764,1.0753,1.0745,1.0721,1.0679,1.0709,1.0706,1.0698,1.064,1.0627,1.0622,1.0585,1.0594,1.0592,1.059,1.0589,1.0538,1.0538,0,0,0,0,0,0,1.0853,1.084,1.077,1.0766,1.0801,1.0752,1.0743,1.0728,1.0679,1.0672,1.0698,1.0696,1.0631,1.0625,1.0619,1.0604,1.0592,1.0589,1.0588,1.0538,1.0538,1.0539,0,0,0,0,0,0,1.0855,1.0847,1.0773,1.0802,1.0791,1.075,1.0734,1.0727,1.0714,1.0672,1.0664,1.0693,1.0631,1.0623,1.06,1.0601,1.0588,1.0585,1.0538,1.0538,1.0538,1.0574,0,0,0,0,0,0,1.0858,1.0848,1.0844,1.0802,1.079,1.0756,1.0735,1.0726,1.071,1.0707,1.0664,1.0657,1.063,1.0604,1.0597,1.0597,1.0583,1.0537,1.0538,1.0538,1.0573,1.0576,1.0578,0,0,0,0,0,1.0861,1.0856,1.0844,1.0836,1.0785,1.0756,1.0749,1.0719,1.071,1.0706,1.0678,1.0658,1.0602,1.0602,1.0594,1.0593,1.0537,1.0538,1.0538,1.0571,1.0575,1.0578,0,0,0,0,0,0,1.0899,1.085,1.0836,1.0818,1.0791,1.0749,1.0742,1.0723,1.0698,1.0696,1.0659,1.065,1.063,1.0609,1.061,1.0581,1.0567,1.0566,1.0595,1.0598,1.0601,1.0606,1.0581,0,0,0,0,0,1.0905,1.0886,1.0845,1.0832,1.082,1.0783,1.077,1.0749,1.0719,1.0708,1.0679,1.065,1.0626,1.0611,1.0586,1.0569,1.0559,1.0565,1.0568,1.057,1.057,1.0559,1.0561,1.054,1.054,1.054,0,0,1.0917,1.0889,1.0879,1.0839,1.0816,1.0797,1.0774,1.0755,1.074,1.0704,1.0681,1.0659,1.0625,1.0605,1.0594,1.0587,1.0573,1.0571,1.0573,1.0571,1.056,1.0562,1.0563,1.0541,1.0541,1.0541,0,0,1.0931,1.0907,1.0894,1.0872,1.0838,1.0814,1.0811,1.0771,1.0755,1.0731,1.0705,1.0686,1.0645,1.0622,1.0605,1.0609,1.059,1.0602,1.0617,1.0607,1.0609,1.061,1.0612,1.0613,1.0602,1.0602,1.0602,0,1.095,1.0921,1.089,1.0872,1.0855,1.0824,1.081,1.079,1.0749,1.0738,1.073,1.0678,1.0653,1.0627,1.0628,1.0615,1.061,1.0607,1.0611,1.0612,1.0613,1.0614,1.0615,1.0604,1.0604,1.0603,1.0603,0,1.0947,1.0927,1.0921,1.0883,1.0866,1.085,1.0816,1.0802,1.0783,1.0759,1.0735,1.0704,1.0673,1.0665,1.0645,1.0636,1.0632,1.0618,1.0604,1.0617,1.0617,1.0618,1.0606,1.0606,1.0605,1.0605,0,0,1.0981,1.0928,1.0926,1.0909,1.0869,1.0852,1.0835,1.0806,1.0794,1.0767,1.0751,1.0718,1.0705,1.0685,1.0663,1.0654,1.066,1.0641,1.0639,1.0646,1.0648,1.0659,1.066,1.0647,1.0647,1.0647,1.0651,0,1.0989,1.0958,1.0929,1.0908,1.0889,1.0859,1.0844,1.0817,1.0795,1.0775,1.0749,1.0726,1.0711,1.0699,1.0689,1.0662,1.066,1.0661,1.0631,1.0631,1.0641,1.066,1.0672,1.0677,1.0651,1.0651,1.0651,0,1.0993,1.0969,1.0946,1.0908,1.0899,1.0886,1.0857,1.0838,1.0808,1.0792,1.0771,1.0747,1.0727,1.0715,1.0686,1.0688,1.0674,1.0659,1.0658,1.0654,1.0642,1.0657,1.0678,1.0679,1.0651,1.0651,1.0651,0,1.1021,1.0982,1.0963,1.095,1.0905,1.0897,1.0878,1.0847,1.0831,1.0805,1.0794,1.0765,1.075,1.0728,1.0697,1.0691,1.0672,1.0657,1.0658,1.0659,1.0655,1.0656,1.0675,1.0646,1.0646,1.0646,1.0646,0,1.1032,1.102,1.0976,1.0964,1.0949,1.0916,1.0901,1.0879,1.0852,1.0835,1.0807,1.0791,1.0752,1.0732,1.0707,1.0687,1.068,1.0667,1.066,1.0669,1.0671,1.066,1.0659,1.0646,1.0646,1.0646,1.0646,0,1.1061,1.1031,1.1009,1.0969,1.0958,1.0949,1.0914,1.0901,1.0878,1.0857,1.085,1.0812,1.0787,1.0754,1.0718,1.0702,1.0684,1.0675,1.0695,1.0692,1.0694,1.0694,1.0706,1.0706,1.0678,1.0679,1.0679,0,1.107,1.106,1.1019,1.1006,1.0988,1.0968,1.0952,1.0919,1.0903,1.0867,1.0859,1.0832,1.0808,1.0769,1.0738,1.071,1.0699,1.0705,1.0695,1.0704,1.0699,1.0701,1.0699,1.0708,1.0709,1.0709,1.0709,0,1.109,1.1076,1.1054,1.1027,1.1009,1.0986,1.0962,1.0953,1.0915,1.0898,1.0872,1.0854,1.0818,1.0791,1.0759,1.0739,1.0718,1.0713,1.0712,1.0721,1.0733,1.0727,1.0703,1.0713,1.0712,1.0712,1.0712,1.0712,1.1109,1.1099,1.1069,1.1045,1.1024,1.1002,1.0988,1.0963,1.0941,1.091,1.0892,1.0867,1.0835,1.0791,1.0771,1.075,1.0742,1.074,1.074,1.074,1.0743,1.0737,1.0744,1.0744,1.0744,1.0744,1.0744,0,1.1128,1.1107,1.1086,1.1053,1.1035,1.1018,1.099,1.0975,1.0954,1.0927,1.0905,1.0876,1.0849,1.0816,1.0788,1.0777,1.0767,1.0771,1.0771,1.0767,1.0752,1.0756,1.078,1.078,1.078,1.078,1.078,1.078,1.1135,1.1117,1.1099,1.1069,1.1048,1.1024,1.101,1.0989,1.0968,1.0936,1.0915,1.0894,1.0864,1.0833,1.0808,1.0799,1.079,1.0797,1.0785,1.0771,1.0768,1.0765,1.0769,1.0795,1.0795,1.0802,1.0802,1.0802]}]]